This is the latest recevied weather packets stored in our database for station/object CE3MXM-12. If no packets are shown the sender has not sent any weather packets the latest 10 day(s).
| Time | Temp. | Humidity | Pressure | Rain* | Wind** | Luminosity | Snow |
|---|---|---|---|---|---|---|---|
| 1788149342 | 49° F | 72% | 765.1 mmHg | - | - | - | - |
| 1788149041 | 49° F | 72% | 765.1 mmHg | - | - | - | - |
| 1788148742 | 49° F | 73% | 765 mmHg | - | - | - | - |
| 1788148441 | 48° F | 72% | 764.9 mmHg | - | - | - | - |
| 1788148141 | 48° F | 73% | 764.9 mmHg | - | - | - | - |
| 1788147841 | 49° F | 74% | 764.8 mmHg | - | - | - | - |
| 1788147541 | 49° F | 72% | 764.8 mmHg | - | - | - | - |
| 1788147241 | 49° F | 72% | 764.9 mmHg | - | - | - | - |
| 1788146941 | 49° F | 72% | 764.8 mmHg | - | - | - | - |
| 1788146641 | 49° F | 71% | 764.5 mmHg | - | - | - | - |
| 1788146341 | 49° F | 74% | 764.5 mmHg | - | - | - | - |
| 1788146040 | 49° F | 70% | 764.5 mmHg | - | - | - | - |
| 1788145740 | 49° F | 72% | 764.5 mmHg | - | - | - | - |
| 1788145440 | 50° F | 70% | 764.4 mmHg | - | - | - | - |
| 1788145140 | 50° F | 70% | 764.4 mmHg | - | - | - | - |
| 1788144840 | 50° F | 67% | 764.5 mmHg | - | - | - | - |
| 1788144540 | 49° F | 69% | 764.5 mmHg | - | - | - | - |
| 1788144240 | 49° F | 72% | 764.3 mmHg | - | - | - | - |
| 1788143940 | 50° F | 73% | 764.5 mmHg | - | - | - | - |
| 1788143640 | 50° F | 71% | 764.4 mmHg | - | - | - | - |
| 1788143340 | 50° F | 71% | 764.5 mmHg | - | - | - | - |
| 1788143040 | 49° F | 71% | 764.6 mmHg | - | - | - | - |
| 1788142739 | 50° F | 71% | 764.6 mmHg | - | - | - | - |
| 1788142439 | 49° F | 72% | 764.5 mmHg | - | - | - | - |
| 1788142139 | 49° F | 74% | 764.5 mmHg | - | - | - | - |
* Rain since midnight (hover to see other rain measurements)
** Current wind speed in m/s (hover to see current wind gust speed)